Tracking 31028 objects as of 17-Jul-2025
HD Live streaming from Space Station
objects crossing your sky now

STARLINK-5674

Track STARLINK-5674 now!
10-day predictions
STARLINK-5674 is classified as:


NORAD ID: 55465
Int'l Code: 2023-015S
Perigee: 565.3 km
Apogee: 567.1 km
Inclination: 43.0 °
Period: 95.8 minutes
Semi major axis: 6937 km
RCS: Unknown
Launch date: February 2, 2023
Source: United States (US)
Launch site: AIR FORCE EASTERN TEST RANGE (AFETR)
Your satellite tracking list
Your tracking list is empty




NASA's NSSDC Master Catalog

Two Line Element Set (TLE):
1 55465U 23015S   25197.61702296 -.00001001  00000-0 -59011-4 0  9997
2 55465  43.0023 168.6471 0001280 270.0403  90.0293 15.02539593135249
Source of the keplerian elements: AFSPC